Kathy C — 2CTI7 — position and weather

sailwx.info

Track history (hours):
 
Tides and Currents Weather Stations Pressure Air Temp Water Temp Dewpoint Dewpoint Depression Visibility Wind Speed Wind Dir Waves Ship Positions

Kathy C

Last reported at 2014-Nov-23 15:11 UTC. Time now 2014-Nov-23 19:52 UTC.
Position N 51°39' E 003°20'.

Length 106 m; draft 4.7 m.

Type: Cargo ship. MMSI: 235075591.

Date/timePositionNaut miles runAvg speedWind from/ knotsBaromVisibWave heightAir tempDewpointWater temp
2014-Nov-23 15:11N 51°39' E 003°20'812.6
2014-Nov-23 14:33N 51°32' E 003°25'1010.2
2014-Nov-23 13:34N 51°26' E 003°39'8 8.4
2014-Nov-23 12:33N 51°22' E 003°50'8 7.5
2014-Nov-23 11:33N 51°26' E 004°01'7 6.9
2014-Nov-23 10:34N 51°24' E 004°11'5 4.8
2014-Nov-23 09:34N 51°21' E 004°17'0 0.4
2014-Nov-23 08:33N 51°21' E 004°18'2 1.6
2014-Nov-23 07:33N 51°19' E 004°19'2 2.3
2014-Nov-23 06:33N 51°17' E 004°21'0 0.0
2014-Nov-23 05:31N 51°17' E 004°21'0 0.0
2014-Nov-23 04:31N 51°17' E 004°21'0 0.0
2014-Nov-23 03:28N 51°17' E 004°21'0 0.0
2014-Nov-23 02:31N 51°17' E 004°21'0 0.0
2014-Nov-23 01:31N 51°17' E 004°21'0 0.0
2014-Nov-23 00:31N 51°17' E 004°21'0 0.0
2014-Nov-22 23:28N 51°17' E 004°21'0 0.0
2014-Nov-22 22:31N 51°17' E 004°21'0 0.0
2014-Nov-22 21:28N 51°17' E 004°21'0 0.0
2014-Nov-22 20:28N 51°17' E 004°21'0 0.0
2014-Nov-22 19:28N 51°17' E 004°21'0 0.0
2014-Nov-22 18:31N 51°17' E 004°21'0 0.0
2014-Nov-22 17:31N 51°17' E 004°21'0 0.0
2014-Nov-22 16:31N 51°17' E 004°21'0 0.0
2014-Nov-22 15:31N 51°17' E 004°21'0 0.0
2014-Nov-22 14:31N 51°17' E 004°21'0 0.0
2014-Nov-22 13:28N 51°17' E 004°21'0 0.0
2014-Nov-22 12:28N 51°17' E 004°21'0 0.0
2014-Nov-22 11:31N 51°17' E 004°21'0 0.0
2014-Nov-22 10:31N 51°17' E 004°21'0 0.0
2014-Nov-22 09:31N 51°17' E 004°21'0 0.0
2014-Nov-22 08:31N 51°17' E 004°21'0 0.0
2014-Nov-22 07:31N 51°17' E 004°21'0 0.0
2014-Nov-22 06:25N 51°17' E 004°21'0 0.0
2014-Nov-22 05:31N 51°17' E 004°21'0 0.0
2014-Nov-22 04:31N 51°17' E 004°21'0 0.0
2014-Nov-22 03:31N 51°17' E 004°21'0 0.0
2014-Nov-22 02:31N 51°17' E 004°21'0 0.0
2014-Nov-22 01:31N 51°17' E 004°21'0 0.0
2014-Nov-22 00:31N 51°17' E 004°21'0 0.0
2014-Nov-21 23:28N 51°17' E 004°21'0 0.0
2014-Nov-21 22:31N 51°17' E 004°21'0 0.0
2014-Nov-21 21:31N 51°17' E 004°21'0 0.0
2014-Nov-21 20:31N 51°17' E 004°21'1 0.8
2014-Nov-21 19:34N 51°17' E 004°20'1 1.3
2014-Nov-21 18:34N 51°18' E 004°18'2 2.2
2014-Nov-21 17:34N 51°19' E 004°16'6 5.7
2014-Nov-21 16:33N 51°22' E 004°09'6 6.4
2014-Nov-21 15:33N 51°26' E 004°00'8 8.1
2014-Nov-21 14:33N 51°21' E 003°51'9 9.2
2014-Nov-21 13:33N 51°25' E 003°38'9 9.1
2014-Nov-21 12:33N 51°31' E 003°26'10 9.7
2014-Nov-21 11:31N 51°40' E 003°19'379 9.7
2014-Nov-19 20:32N 57°09' W 002°03'1 1.2
2014-Nov-19 19:33N 57°09' W 002°05'0 0.0
2014-Nov-19 18:12N 57°09' W 002°05'0 0.0
2014-Nov-19 17:33N 57°09' W 002°05'0 0.0
2014-Nov-19 16:33N 57°09' W 002°05'0 0.0
2014-Nov-19 15:30N 57°09' W 002°05'0 0.0
2014-Nov-19 14:33N 57°09' W 002°05'0 0.0
2014-Nov-19 13:30N 57°09' W 002°05'0 0.0
2014-Nov-19 12:32N 57°09' W 002°05'0 0.0
2014-Nov-19 11:24N 57°09' W 002°05'0 0.0
2014-Nov-19 10:33N 57°09' W 002°05'0 0.0
2014-Nov-19 09:30N 57°09' W 002°05'0 0.0
2014-Nov-19 08:33N 57°09' W 002°05'0 0.0
2014-Nov-19 04:30N 57°09' W 002°05'0 0.0
2014-Nov-19 03:32N 57°09' W 002°05'0 0.0
2014-Nov-19 01:26N 57°09' W 002°05'0 0.0
2014-Nov-18 23:06N 57°09' W 002°05'0 0.0
2014-Nov-18 22:33N 57°09' W 002°05'0 0.0
2014-Nov-18 21:17N 57°09' W 002°05'0 0.0
2014-Nov-18 19:24N 57°09' W 002°05'0 0.0
2014-Nov-18 18:12N 57°09' W 002°05'0 0.0
2014-Nov-18 17:33N 57°09' W 002°05'0 0.0
2014-Nov-18 16:14N 57°09' W 002°05'0 0.0
2014-Nov-18 11:18N 57°09' W 002°05'0 0.0
2014-Nov-18 10:33N 57°09' W 002°05'0 0.0
2014-Nov-18 09:27N 57°09' W 002°05'0 0.0
2014-Nov-18 08:27N 57°09' W 002°05'0 0.0
2014-Nov-18 07:30N 57°09' W 002°05'0 0.0
2014-Nov-18 06:33N 57°09' W 002°05'0 0.0
2014-Nov-18 05:33N 57°09' W 002°05'0 0.0
2014-Nov-18 04:33N 57°09' W 002°05'0 0.0
2014-Nov-18 03:29N 57°09' W 002°05'0 0.0
2014-Nov-18 02:30N 57°09' W 002°05'0 0.0
2014-Nov-18 01:33N 57°09' W 002°05'0 0.0
2014-Nov-18 00:33N 57°09' W 002°05'0 0.0
2014-Nov-17 23:32N 57°09' W 002°05'0 0.0
2014-Nov-17 22:21N 57°09' W 002°05'0 0.0
2014-Nov-17 21:33N 57°09' W 002°05'0 0.0
2014-Nov-17 20:33N 57°09' W 002°05'0 0.0
2014-Nov-17 19:30N 57°09' W 002°05'0 0.0
2014-Nov-17 18:33N 57°09' W 002°05'0 0.0
2014-Nov-17 16:09N 57°09' W 002°05'0 0.0
2014-Nov-17 15:33N 57°09' W 002°05'0 0.0
2014-Nov-17 14:30N 57°09' W 002°05'0 0.0
2014-Nov-17 13:33N 57°09' W 002°05'0 0.0
2014-Nov-17 12:30N 57°09' W 002°05'0 0.0
2014-Nov-17 11:30N 57°09' W 002°05'0 0.0
2014-Nov-17 10:23N 57°09' W 002°05'0 0.0
2014-Nov-17 09:24N 57°09' W 002°05'0 0.0
2014-Nov-17 08:30N 57°09' W 002°05'0 0.0
2014-Nov-17 07:33N 57°09' W 002°05'0 0.0
2014-Nov-17 06:33N 57°09' W 002°05'0 0.0
2014-Nov-17 05:33N 57°09' W 002°05'0 0.0
2014-Nov-17 04:33N 57°09' W 002°05'0 0.0
2014-Nov-17 03:33N 57°09' W 002°05'0 0.0
2014-Nov-17 02:30N 57°09' W 002°05'0 0.0
2014-Nov-17 01:33N 57°09' W 002°05'0 0.0
2014-Nov-17 00:33N 57°09' W 002°05'0 0.0
2014-Nov-16 23:33N 57°09' W 002°05'0 0.0
2014-Nov-16 22:33N 57°09' W 002°05'0 0.0
2014-Nov-16 21:29N 57°09' W 002°05'0 0.0
2014-Nov-16 20:33N 57°09' W 002°05'0 0.0
2014-Nov-16 19:33N 57°09' W 002°05'0 0.0
2014-Nov-16 18:33N 57°09' W 002°05'0 0.0
2014-Nov-16 17:33N 57°09' W 002°05'0 0.0
2014-Nov-16 16:33N 57°09' W 002°05'0 0.0
2014-Nov-16 15:32N 57°09' W 002°05'0 0.0
2014-Nov-16 14:33N 57°09' W 002°05'0 0.0
2014-Nov-16 13:33N 57°09' W 002°05'0 0.0
2014-Nov-16 12:33N 57°09' W 002°05'0 0.0
2014-Nov-16 11:33N 57°09' W 002°05'0 0.0
2014-Nov-16 10:33N 57°09' W 002°05'0 0.0
2014-Nov-16 09:33N 57°09' W 002°05'0 0.0
2014-Nov-16 08:33N 57°09' W 002°05'0 0.0
2014-Nov-16 07:30N 57°09' W 002°05'0 0.0
2014-Nov-16 06:33N 57°09' W 002°05'0 0.0
2014-Nov-16 05:33N 57°09' W 002°05'0 0.0
2014-Nov-16 04:33N 57°09' W 002°05'0 0.0
2014-Nov-16 03:33N 57°09' W 002°05'0 0.0
2014-Nov-16 02:33N 57°09' W 002°05'0 0.0
2014-Nov-16 01:32N 57°09' W 002°05'0 0.0
2014-Nov-16 00:33N 57°09' W 002°05'0 0.0
2014-Nov-15 23:33N 57°09' W 002°05'0 0.0
2014-Nov-15 22:33N 57°09' W 002°05'0 0.2
2014-Nov-15 21:33N 57°09' W 002°05'127 6.6
2014-Nov-15 02:27N 55°11' W 000°37'20 9.8
2014-Nov-15 00:23N 54°53' W 000°24'8 9.6
2014-Nov-14 23:34N 54°45' W 000°19'10 9.7
2014-Nov-14 22:34N 54°36' W 000°14'9 8.7
2014-Nov-14 21:33N 54°28' W 000°08'9 8.7
2014-Nov-14 20:33N 54°21' E 000°00'9 8.7
2014-Nov-14 19:33N 54°14' E 000°09'9 8.8
2014-Nov-14 18:34N 54°06' E 000°15'9 9.3
2014-Nov-14 17:33N 53°56' E 000°17'10 9.7
2014-Nov-14 16:34N 53°47' E 000°20'1010.0
2014-Nov-14 15:33N 53°37' E 000°21'10 9.7
2014-Nov-14 14:33N 53°34' E 000°05'16 8.0
2014-Nov-14 12:32N 53°45' W 000°16'0 0.3
2014-Nov-14 11:32N 53°45' W 000°16'0 0.0
2014-Nov-14 10:26N 53°45' W 000°16'0 0.0
2014-Nov-14 09:32N 53°45' W 000°16'0 0.0
2014-Nov-14 08:32N 53°45' W 000°16'0 0.0
2014-Nov-14 07:32N 53°45' W 000°16'0 0.0
2014-Nov-14 06:29N 53°45' W 000°16'0 0.0
2014-Nov-14 05:29N 53°45' W 000°16'0 0.0
2014-Nov-14 04:23N 53°45' W 000°16'0 0.0
2014-Nov-14 03:26N 53°45' W 000°16'0 0.0
2014-Nov-14 02:32N 53°45' W 000°16'0 0.0
2014-Nov-14 01:32N 53°45' W 000°16'0 0.0
2014-Nov-14 00:32N 53°45' W 000°16'0 0.0
2014-Nov-13 23:32N 53°45' W 000°16'0 0.0
2014-Nov-13 22:32N 53°45' W 000°16'0 0.0
2014-Nov-13 21:32N 53°45' W 000°16'0 0.0
2014-Nov-13 20:29N 53°45' W 000°16'0 0.0
2014-Nov-13 19:32N 53°45' W 000°16'0 0.0
2014-Nov-13 18:32N 53°45' W 000°16'0 0.0
2014-Nov-13 17:32N 53°45' W 000°16'0 0.0
2014-Nov-13 16:32N 53°45' W 000°16'0 0.0
2014-Nov-13 15:32N 53°45' W 000°16'  
Track history (hours):
 
Tides and Currents Weather Stations Pressure Air Temp Water Temp Dewpoint Dewpoint Depression Visibility Wind Speed Wind Dir Waves Ship Positions

Kathy C

Last reported at 2014-Nov-23 15:11 UTC. Time now 2014-Nov-23 19:52 UTC.
Position N 51°39' E 003°20'.

Length 106 m; draft 4.7 m.

Type: Cargo ship. MMSI: 235075591.

Date/timePositionNaut miles runAvg speedWind from/ knotsBaromVisibWave heightAir tempDewpointWater temp
2014-Nov-23 15:11N 51°39' E 003°20'812.6
2014-Nov-23 14:33N 51°32' E 003°25'1010.2
2014-Nov-23 13:34N 51°26' E 003°39'8 8.4
2014-Nov-23 12:33N 51°22' E 003°50'8 7.5
2014-Nov-23 11:33N 51°26' E 004°01'7 6.9
2014-Nov-23 10:34N 51°24' E 004°11'5 4.8
2014-Nov-23 09:34N 51°21' E 004°17'0 0.4
2014-Nov-23 08:33N 51°21' E 004°18'2 1.6
2014-Nov-23 07:33N 51°19' E 004°19'2 2.3
2014-Nov-23 06:33N 51°17' E 004°21'0 0.0
2014-Nov-23 05:31N 51°17' E 004°21'0 0.0
2014-Nov-23 04:31N 51°17' E 004°21'0 0.0
2014-Nov-23 03:28N 51°17' E 004°21'0 0.0
2014-Nov-23 02:31N 51°17' E 004°21'0 0.0
2014-Nov-23 01:31N 51°17' E 004°21'0 0.0
2014-Nov-23 00:31N 51°17' E 004°21'0 0.0
2014-Nov-22 23:28N 51°17' E 004°21'0 0.0
2014-Nov-22 22:31N 51°17' E 004°21'0 0.0
2014-Nov-22 21:28N 51°17' E 004°21'0 0.0
2014-Nov-22 20:28N 51°17' E 004°21'0 0.0
2014-Nov-22 19:28N 51°17' E 004°21'0 0.0
2014-Nov-22 18:31N 51°17' E 004°21'0 0.0
2014-Nov-22 17:31N 51°17' E 004°21'0 0.0
2014-Nov-22 16:31N 51°17' E 004°21'0 0.0
2014-Nov-22 15:31N 51°17' E 004°21'0 0.0
2014-Nov-22 14:31N 51°17' E 004°21'0 0.0
2014-Nov-22 13:28N 51°17' E 004°21'0 0.0
2014-Nov-22 12:28N 51°17' E 004°21'0 0.0
2014-Nov-22 11:31N 51°17' E 004°21'0 0.0
2014-Nov-22 10:31N 51°17' E 004°21'0 0.0
2014-Nov-22 09:31N 51°17' E 004°21'0 0.0
2014-Nov-22 08:31N 51°17' E 004°21'0 0.0
2014-Nov-22 07:31N 51°17' E 004°21'0 0.0
2014-Nov-22 06:25N 51°17' E 004°21'0 0.0
2014-Nov-22 05:31N 51°17' E 004°21'0 0.0
2014-Nov-22 04:31N 51°17' E 004°21'0 0.0
2014-Nov-22 03:31N 51°17' E 004°21'0 0.0
2014-Nov-22 02:31N 51°17' E 004°21'0 0.0
2014-Nov-22 01:31N 51°17' E 004°21'0 0.0
2014-Nov-22 00:31N 51°17' E 004°21'0 0.0
2014-Nov-21 23:28N 51°17' E 004°21'0 0.0
2014-Nov-21 22:31N 51°17' E 004°21'0 0.0
2014-Nov-21 21:31N 51°17' E 004°21'0 0.0
2014-Nov-21 20:31N 51°17' E 004°21'1 0.8
2014-Nov-21 19:34N 51°17' E 004°20'1 1.3
2014-Nov-21 18:34N 51°18' E 004°18'2 2.2
2014-Nov-21 17:34N 51°19' E 004°16'6 5.7
2014-Nov-21 16:33N 51°22' E 004°09'6 6.4
2014-Nov-21 15:33N 51°26' E 004°00'8 8.1
2014-Nov-21 14:33N 51°21' E 003°51'9 9.2
2014-Nov-21 13:33N 51°25' E 003°38'9 9.1
2014-Nov-21 12:33N 51°31' E 003°26'10 9.7
2014-Nov-21 11:31N 51°40' E 003°19'379 9.7
2014-Nov-19 20:32N 57°09' W 002°03'1 1.2
2014-Nov-19 19:33N 57°09' W 002°05'0 0.0
2014-Nov-19 18:12N 57°09' W 002°05'0 0.0
2014-Nov-19 17:33N 57°09' W 002°05'0 0.0
2014-Nov-19 16:33N 57°09' W 002°05'0 0.0
2014-Nov-19 15:30N 57°09' W 002°05'0 0.0
2014-Nov-19 14:33N 57°09' W 002°05'0 0.0
2014-Nov-19 13:30N 57°09' W 002°05'0 0.0
2014-Nov-19 12:32N 57°09' W 002°05'0 0.0
2014-Nov-19 11:24N 57°09' W 002°05'0 0.0
2014-Nov-19 10:33N 57°09' W 002°05'0 0.0
2014-Nov-19 09:30N 57°09' W 002°05'0 0.0
2014-Nov-19 08:33N 57°09' W 002°05'0 0.0
2014-Nov-19 04:30N 57°09' W 002°05'0 0.0
2014-Nov-19 03:32N 57°09' W 002°05'0 0.0
2014-Nov-19 01:26N 57°09' W 002°05'0 0.0
2014-Nov-18 23:06N 57°09' W 002°05'0 0.0
2014-Nov-18 22:33N 57°09' W 002°05'0 0.0
2014-Nov-18 21:17N 57°09' W 002°05'0 0.0
2014-Nov-18 19:24N 57°09' W 002°05'0 0.0
2014-Nov-18 18:12N 57°09' W 002°05'0 0.0
2014-Nov-18 17:33N 57°09' W 002°05'0 0.0
2014-Nov-18 16:14N 57°09' W 002°05'0 0.0
2014-Nov-18 11:18N 57°09' W 002°05'0 0.0
2014-Nov-18 10:33N 57°09' W 002°05'0 0.0
2014-Nov-18 09:27N 57°09' W 002°05'0 0.0
2014-Nov-18 08:27N 57°09' W 002°05'0 0.0
2014-Nov-18 07:30N 57°09' W 002°05'0 0.0
2014-Nov-18 06:33N 57°09' W 002°05'0 0.0
2014-Nov-18 05:33N 57°09' W 002°05'0 0.0
2014-Nov-18 04:33N 57°09' W 002°05'0 0.0
2014-Nov-18 03:29N 57°09' W 002°05'0 0.0
2014-Nov-18 02:30N 57°09' W 002°05'0 0.0
2014-Nov-18 01:33N 57°09' W 002°05'0 0.0
2014-Nov-18 00:33N 57°09' W 002°05'0 0.0
2014-Nov-17 23:32N 57°09' W 002°05'0 0.0
2014-Nov-17 22:21N 57°09' W 002°05'0 0.0
2014-Nov-17 21:33N 57°09' W 002°05'0 0.0
2014-Nov-17 20:33N 57°09' W 002°05'0 0.0
2014-Nov-17 19:30N 57°09' W 002°05'0 0.0
2014-Nov-17 18:33N 57°09' W 002°05'0 0.0
2014-Nov-17 16:09N 57°09' W 002°05'0 0.0
2014-Nov-17 15:33N 57°09' W 002°05'0 0.0
2014-Nov-17 14:30N 57°09' W 002°05'0 0.0
2014-Nov-17 13:33N 57°09' W 002°05'0 0.0
2014-Nov-17 12:30N 57°09' W 002°05'0 0.0
2014-Nov-17 11:30N 57°09' W 002°05'0 0.0
2014-Nov-17 10:23N 57°09' W 002°05'0 0.0
2014-Nov-17 09:24N 57°09' W 002°05'0 0.0
2014-Nov-17 08:30N 57°09' W 002°05'0 0.0
2014-Nov-17 07:33N 57°09' W 002°05'0 0.0
2014-Nov-17 06:33N 57°09' W 002°05'0 0.0
2014-Nov-17 05:33N 57°09' W 002°05'0 0.0
2014-Nov-17 04:33N 57°09' W 002°05'0 0.0
2014-Nov-17 03:33N 57°09' W 002°05'0 0.0
2014-Nov-17 02:30N 57°09' W 002°05'0 0.0
2014-Nov-17 01:33N 57°09' W 002°05'0 0.0
2014-Nov-17 00:33N 57°09' W 002°05'0 0.0
2014-Nov-16 23:33N 57°09' W 002°05'0 0.0
2014-Nov-16 22:33N 57°09' W 002°05'0 0.0
2014-Nov-16 21:29N 57°09' W 002°05'0 0.0
2014-Nov-16 20:33N 57°09' W 002°05'0 0.0
2014-Nov-16 19:33N 57°09' W 002°05'0 0.0
2014-Nov-16 18:33N 57°09' W 002°05'0 0.0
2014-Nov-16 17:33N 57°09' W 002°05'0 0.0
2014-Nov-16 16:33N 57°09' W 002°05'0 0.0
2014-Nov-16 15:32N 57°09' W 002°05'0 0.0
2014-Nov-16 14:33N 57°09' W 002°05'0 0.0
2014-Nov-16 13:33N 57°09' W 002°05'0 0.0
2014-Nov-16 12:33N 57°09' W 002°05'0 0.0
2014-Nov-16 11:33N 57°09' W 002°05'0 0.0
2014-Nov-16 10:33N 57°09' W 002°05'0 0.0
2014-Nov-16 09:33N 57°09' W 002°05'0 0.0
2014-Nov-16 08:33N 57°09' W 002°05'0 0.0
2014-Nov-16 07:30N 57°09' W 002°05'0 0.0
2014-Nov-16 06:33N 57°09' W 002°05'0 0.0
2014-Nov-16 05:33N 57°09' W 002°05'0 0.0
2014-Nov-16 04:33N 57°09' W 002°05'0 0.0
2014-Nov-16 03:33N 57°09' W 002°05'0 0.0
2014-Nov-16 02:33N 57°09' W 002°05'0 0.0
2014-Nov-16 01:32N 57°09' W 002°05'0 0.0
2014-Nov-16 00:33N 57°09' W 002°05'0 0.0
2014-Nov-15 23:33N 57°09' W 002°05'0 0.0
2014-Nov-15 22:33N 57°09' W 002°05'0 0.2
2014-Nov-15 21:33N 57°09' W 002°05'127 6.6
2014-Nov-15 02:27N 55°11' W 000°37'20 9.8
2014-Nov-15 00:23N 54°53' W 000°24'8 9.6
2014-Nov-14 23:34N 54°45' W 000°19'10 9.7
2014-Nov-14 22:34N 54°36' W 000°14'9 8.7
2014-Nov-14 21:33N 54°28' W 000°08'9 8.7
2014-Nov-14 20:33N 54°21' E 000°00'9 8.7
2014-Nov-14 19:33N 54°14' E 000°09'9 8.8
2014-Nov-14 18:34N 54°06' E 000°15'9 9.3
2014-Nov-14 17:33N 53°56' E 000°17'10 9.7
2014-Nov-14 16:34N 53°47' E 000°20'1010.0
2014-Nov-14 15:33N 53°37' E 000°21'10 9.7
2014-Nov-14 14:33N 53°34' E 000°05'16 8.0
2014-Nov-14 12:32N 53°45' W 000°16'0 0.3
2014-Nov-14 11:32N 53°45' W 000°16'0 0.0
2014-Nov-14 10:26N 53°45' W 000°16'0 0.0
2014-Nov-14 09:32N 53°45' W 000°16'0 0.0
2014-Nov-14 08:32N 53°45' W 000°16'0 0.0
2014-Nov-14 07:32N 53°45' W 000°16'0 0.0
2014-Nov-14 06:29N 53°45' W 000°16'0 0.0
2014-Nov-14 05:29N 53°45' W 000°16'0 0.0
2014-Nov-14 04:23N 53°45' W 000°16'0 0.0
2014-Nov-14 03:26N 53°45' W 000°16'0 0.0
2014-Nov-14 02:32N 53°45' W 000°16'0 0.0
2014-Nov-14 01:32N 53°45' W 000°16'0 0.0
2014-Nov-14 00:32N 53°45' W 000°16'0 0.0
2014-Nov-13 23:32N 53°45' W 000°16'0 0.0
2014-Nov-13 22:32N 53°45' W 000°16'0 0.0
2014-Nov-13 21:32N 53°45' W 000°16'0 0.0
2014-Nov-13 20:29N 53°45' W 000°16'0 0.0
2014-Nov-13 19:32N 53°45' W 000°16'0 0.0
2014-Nov-13 18:32N 53°45' W 000°16'0 0.0
2014-Nov-13 17:32N 53°45' W 000°16'0 0.0
2014-Nov-13 16:32N 53°45' W 000°16'0 0.0
2014-Nov-13 15:32N 53°45' W 000°16'  

Dump ship's entire track history